Change the Weather History Date:

Sunday, June 30, 2013

  Actual Average Record
Temperature  
Mean Temperature 66 °F -  
Max Temperature 69 °F 72 °F 88 °F (1959)
Min Temperature 64 °F 59 °F 51 °F (1967)
Cooling Degree Days 1    
Growing Degree Days 16 (Base 50)    
Moisture  
Dew Point 64 °F    
Average Humidity 96    
Maximum Humidity 100    
Minimum Humidity 88    
Precipitation  
Precipitation 0.04 in - - ()
Sea Level Pressure  
Sea Level Pressure 29.89 in    
Wind  
Wind Speed 10 mph (SSW)    
Max Wind Speed 16 mph    
Max Gust Speed -    
Visibility 2 miles    
Events Fog , Rain    
Averages and records for this station are not official NWS values.
T = Trace of Precipitation, MM = Missing Value Source: NWS Daily Summary

Daily Weather History Graph

Daily Weather History Graph

Search for Another Location

Airport or City:

Trip Planner

Search our weather history database for the weather conditions in past years. The results will help you decide how hot, cold, wet, or windy it might be!

Date:

Astronomy

Jun. 30, 2013 Rise Set
Actual Time 5:10 AM EDT 8:17 PM EDT
Civil Twilight 4:36 AM EDT 8:50 PM EDT
Nautical Twilight 3:53 AM EDT 9:33 PM EDT
Astronomical Twilight 3:02 AM EDT 10:24 PM EDT
Moon 12:10 AM EDT (6/30) 1:25 PM EDT (6/30)
Length of Visible Light 16h 13m
Length of Day
15h 06m
Last Quarter, 45% of the Moon is Illuminated
Jun 30
Last Quarter
Jul 8
New
Jul 15
First Quarter
Jul 22
Full
Jul 29
Last Quarter

Hourly Weather History & Observations

Time (EDT) Temp. Dew Point Humidity Pressure Visibility Wind Dir Wind Speed Gust Speed Precip Events Conditions
12:07 AM 64.4 °F 62.6 °F 94% 29.79 in 4.0 mi South 9.2 mph - N/A   Overcast
12:16 AM 64.4 °F 62.6 °F 94% 29.78 in 4.0 mi South 6.9 mph - N/A   Overcast
12:47 AM 64.4 °F 62.6 °F 94% 29.79 in 5.0 mi South 10.4 mph - N/A   Overcast
12:53 AM 64.9 °F 64.0 °F 97% 29.79 in 5.0 mi South 10.4 mph - N/A   Overcast
1:32 AM 64.4 °F 64.4 °F 100% 29.79 in 4.0 mi South 10.4 mph - N/A   Overcast
1:53 AM 66.0 °F 64.0 °F 93% 29.79 in 3.0 mi SSW 11.5 mph - N/A   Overcast
2:22 AM 64.4 °F 64.4 °F 100% 29.79 in 1.8 mi SSW 11.5 mph - N/A   Overcast
2:35 AM 64.4 °F 64.4 °F 100% 29.79 in 0.8 mi SSW 12.7 mph - N/A   Mist
2:44 AM 66.2 °F 64.4 °F 94% 29.79 in 1.2 mi SW 13.8 mph - N/A   Overcast
2:53 AM 66.0 °F 64.9 °F 96% 29.79 in 2.0 mi SW 13.8 mph - N/A   Overcast
3:07 AM 66.2 °F 64.4 °F 94% 29.79 in 3.0 mi SW 13.8 mph - N/A   Overcast
3:15 AM 66.2 °F 64.4 °F 94% 29.79 in 1.8 mi SW 12.7 mph - N/A   Overcast
3:27 AM 64.4 °F 64.4 °F 100% 29.79 in 0.8 mi SSW 12.7 mph - N/A   Mist
3:35 AM 64.4 °F 64.4 °F 100% 29.79 in 1.0 mi SSW 12.7 mph - 0.01 in   Mist
3:42 AM 64.4 °F 64.4 °F 100% 29.80 in 0.5 mi SSW 12.7 mph - 0.01 in Fog Fog
3:53 AM 64.9 °F 64.0 °F 97% 29.80 in 0.5 mi SW 10.4 mph - 0.01 in Fog Fog
4:21 AM 66.2 °F 64.4 °F 94% 29.80 in 1.8 mi SW 10.4 mph - N/A   Overcast
4:29 AM 66.2 °F 64.4 °F 94% 29.80 in 2.5 mi SW 10.4 mph - N/A   Overcast
4:53 AM 64.9 °F 64.0 °F 97% 29.81 in 1.2 mi SW 8.1 mph - N/A   Overcast
5:09 AM 64.4 °F 64.4 °F 100% 29.83 in 0.8 mi SSW 8.1 mph - N/A   Mist
5:39 AM 64.4 °F 64.4 °F 100% 29.83 in 1.8 mi SSW 10.4 mph - N/A   Overcast
5:53 AM 64.9 °F 64.0 °F 97% 29.83 in 1.5 mi SSW 11.5 mph - N/A   Overcast
6:53 AM 66.0 °F 64.9 °F 96% 29.86 in 2.0 mi SSW 10.4 mph - N/A   Overcast
7:21 AM 66.2 °F 64.4 °F 94% 29.86 in 1.0 mi SSW 12.7 mph - N/A   Overcast
7:39 AM 66.2 °F 64.4 °F 94% 29.87 in 0.2 mi South 11.5 mph - N/A Fog Fog
7:53 AM 66.0 °F 64.9 °F 96% 29.87 in 0.5 mi South 11.5 mph - N/A Fog Fog
8:40 AM 66.2 °F 64.4 °F 94% 29.88 in 1.0 mi SSW 16.1 mph - N/A   Overcast
8:53 AM 66.0 °F 64.9 °F 96% 29.88 in 1.0 mi SSW 13.8 mph - N/A   Overcast
9:53 AM 66.0 °F 64.0 °F 93% 29.89 in 1.5 mi SSW 9.2 mph - 0.01 in   Overcast
10:14 AM 66.2 °F 64.4 °F 94% 29.90 in 0.5 mi SSW 9.2 mph - N/A Fog Fog
10:36 AM 64.4 °F 64.4 °F 100% 29.90 in 0.2 mi SSW 9.2 mph - N/A Fog Fog
10:47 AM 64.4 °F 64.4 °F 100% 29.91 in 0.2 mi SSW 9.2 mph - N/A Fog Fog
10:53 AM 64.9 °F 64.0 °F 97% 29.91 in 0.2 mi SSW 11.5 mph - N/A Fog Fog
11:22 AM 66.2 °F 64.4 °F 94% 29.91 in 1.0 mi SSW 10.4 mph - N/A   Overcast
11:40 AM 66.2 °F 64.4 °F 94% 29.91 in 2.0 mi SSW 11.5 mph - N/A   Overcast
11:53 AM 66.9 °F 64.9 °F 93% 29.91 in 2.0 mi SW 10.4 mph - N/A   Overcast
12:00 PM 66.2 °F 64.4 °F 94% 29.91 in 4.0 mi SSW 8.1 mph - N/A   Overcast
12:53 PM 66.9 °F 64.0 °F 90% 29.91 in 1.0 mi SW 6.9 mph - N/A   Overcast
1:37 PM 66.2 °F 64.4 °F 94% 29.92 in 0.8 mi SSW 8.1 mph - 0.00 in   Overcast
1:53 PM 68.0 °F 66.0 °F 93% 29.92 in 2.0 mi SSW 12.7 mph - 0.00 in   Overcast
2:02 PM 68.0 °F 64.4 °F 88% 29.92 in 3.0 mi South 8.1 mph - N/A   Overcast
2:53 PM 66.9 °F 64.0 °F 90% 29.94 in 4.0 mi South 10.4 mph - N/A   Mostly Cloudy
3:11 PM 68.0 °F 64.4 °F 88% 29.94 in 8.0 mi SSW 10.4 mph - N/A   Overcast
3:38 PM 68.0 °F 66.2 °F 94% 29.94 in 5.0 mi SSW 11.5 mph - 0.01 in Rain Light Rain
3:46 PM 68.0 °F 66.2 °F 94% 29.94 in 1.2 mi South 10.4 mph - 0.01 in Rain Light Rain
3:53 PM 66.9 °F 66.0 °F 97% 29.94 in 0.8 mi South 8.1 mph - 0.01 in Rain Light Rain
4:06 PM 66.2 °F 66.2 °F 100% 29.94 in 0.2 mi South 5.8 mph - 0.00 in Fog , Rain Light Rain
4:53 PM 66.0 °F 64.9 °F 96% 29.94 in 0.2 mi SE 8.1 mph - 0.00 in Fog Fog
5:22 PM 66.2 °F 64.4 °F 94% 29.95 in 0.2 mi South 6.9 mph - 0.00 in Fog , Rain Light Rain
5:53 PM 66.0 °F 64.9 °F 96% 29.95 in 0.2 mi South 6.9 mph - 0.00 in Fog Fog
6:00 PM 66.2 °F 64.4 °F 94% 29.95 in 0.5 mi South 6.9 mph - N/A Fog Fog
6:26 PM 66.2 °F 64.4 °F 94% 29.96 in 0.2 mi South 6.9 mph - 0.00 in Fog , Rain Light Rain
6:53 PM 64.9 °F 64.0 °F 97% 29.96 in 0.5 mi South 5.8 mph - 0.00 in Fog Fog
7:06 PM 66.2 °F 64.4 °F 94% 29.97 in 1.0 mi SSW 9.2 mph - 0.00 in Rain Light Rain
7:53 PM 64.9 °F 64.0 °F 97% 29.97 in 1.0 mi SSW 10.4 mph - 0.00 in   Overcast
8:00 PM 64.4 °F 64.4 °F 100% 29.97 in 4.0 mi SSW 11.5 mph - N/A   Mostly Cloudy
8:16 PM 64.4 °F 64.4 °F 100% 29.97 in 4.0 mi South 9.2 mph - 0.01 in   Mostly Cloudy
8:53 PM 64.9 °F 64.0 °F 97% 29.97 in 6.0 mi South 10.4 mph - 0.01 in   Scattered Clouds
9:20 PM 64.4 °F 62.6 °F 94% 29.98 in 4.0 mi South 10.4 mph - N/A   Mostly Cloudy
9:53 PM 64.9 °F 64.0 °F 97% 29.99 in 5.0 mi South 10.4 mph - N/A   Overcast
10:53 PM 64.0 °F 63.0 °F 96% 30.00 in 5.0 mi South 10.4 mph - N/A   Overcast
11:18 PM 64.4 °F 64.4 °F 100% 30.00 in 6.0 mi South 12.7 mph - N/A   Overcast
11:39 PM 64.4 °F 64.4 °F 100% 30.00 in 5.0 mi South 10.4 mph - N/A   Overcast
11:53 PM 64.9 °F 64.0 °F 97% 30.01 in 6.0 mi South 11.5 mph - N/A   Mostly Cloudy